This demonstration page uses our WeatherBlox Daily Observations layout. Learn more.

36.17497, -115.13722

Hourly Observations for July 11, 2020

Temp ( °F °C ) Dew Point ( °F °C ) Humidity (%) Winds ( mph kmh ) Pressure ( in mb ) Visibility ( mi km ) Precip ( " mm )
12:53 am 00:53 Clear 94 34.4 38 3.3 14 14 Calm 29.89 1012 10 16.0934 0 0
1:53 am 01:53 Clear 92 33.3 40 4.4 16 16 NNW 5 7 29.89 1012 10 16.0934 0 0
2:53 am 02:53 Clear 89 31.7 42 5.6 19 19 N 3 6 29.89 1012 10 16.0934 0 0
3:53 am 03:53 Clear 87 30.6 39 3.9 18 18 NW 6 9 29.89 1012 10 16.0934 0 0
4:53 am 04:53 Clear 87 30.6 44 6.7 22 22 WNW 5 7 29.9 1013 10 16.0934 0 0
5:53 am 05:53 Sunny 85 29.4 42 5.6 22 22 Calm 29.92 1013 10 16.0934 0 0
6:53 am 06:53 Sunny 89 31.7 44 6.7 21 21 NW 3 6 29.93 1014 10 16.0934 0 0
7:53 am 07:53 Sunny 94 34.4 44 6.7 18 18 NNW 5 7 29.94 1014 10 16.0934 0 0
8:53 am 08:53 Sunny 97 36.1 40 4.4 14 14 Calm 29.96 1014 10 16.0934 0 0
9:53 am 09:53 Sunny 102 38.9 39 3.9 11 11 ENE 3 6 29.96 1014 10 16.0934 0 0
10:53 am 10:53 Sunny 104 40 39 3.9 11 11 SSE 6 9 29.95 1014 10 16.0934 0 0
11:53 am 11:53 Sunny 106 41.1 39 3.9 10 10 ESE 9 15 29.93 1014 10 16.0934 0 0
12:53 pm 12:53 Sunny 106 41.1 40 4.4 10 10 SE 5 7 29.92 1013 10 16.0934 0 0
1:53 pm 13:53 Sunny 111 43.9 44 6.7 10 10 SW 14 22 29.88 1012 10 16.0934 0 0
2:53 pm 14:53 Sunny 111 43.9 43 6.1 10 10 SSW 17 28 29.86 1011 10 16.0934 0 0
3:53 pm 15:53 Sunny 113 45 42 5.6 9 9 SSW 12 19 29.84 1010 10 16.0934 0 0
4:53 pm 16:53 Sunny 113 45 43 6.1 9 9 SW 16 26 29.82 1010 10 16.0934 0 0
5:53 pm 17:53 Sunny 112 44.4 42 5.6 9 9 WSW 17 28 29.8 1009 10 16.0934 0 0
6:53 pm 18:53 Sunny 110 43.3 42 5.6 10 10 WSW 18 30 29.8 1009 10 16.0934 0 0
7:53 pm 19:53 Sunny 108 42.2 42 5.6 11 11 WSW 15 24 29.81 1009 10 16.0934 0 0
8:53 pm 20:53 Clear 107 41.7 43 6.1 11 11 WSW 14 22 29.81 1010 10 16.0934 0 0
9:53 pm 21:53 Clear 105 40.6 44 6.7 13 13 WSW 7 11 29.83 1010 10 16.0934 0 0
10:53 pm 22:53 Clear 101 38.3 46 7.8 15 15 WSW 5 7 29.84 1010 10 16.0934 0 0
11:53 pm 23:53 Clear 100 37.8 45 7.2 15 15 WSW 3 6 29.83 1010 10 16.0934 0 0

Powered by AerisWeather